Location: Fort Wayne
(41.1310°N, 85.1290°W)
Time: 02:35:53
(UTC-04:00)

Gbstr 26 Del rocket - Visible Passes

Search period start: 30 March 2017 00:00
Search period end: 09 April 2017 00:00
Orbit: 493 x 1266 km, 51.8° (Epoch: 28 March)

Date Brightness Start Highest point End Pass type
(mag) Time Alt. Az. Time Alt. Az. Time Alt. Az.
05 Apr 6.7 05:12:23 10° SSE 05:15:31 13° ESE 05:18:31 10° E visible
06 Apr 6.5 05:06:27 10° SSE 05:11:02 17° SE 05:15:20 10° E visible
07 Apr 6.2 05:01:01 10° S 05:06:34 21° SE 05:11:42 10° E visible
07 Apr 4.5 06:45:39 10° SW 06:53:26 75° SE 07:00:02 10° ENE visible
08 Apr 5.9 04:57:01 14° S 05:02:07 26° SE 05:07:51 10° ENE visible
08 Apr 4.4 06:41:15 10° SW 06:49:07 87° SE 06:55:47 10° NE visible
